Location: Oulad Sidi Fares
(33.3333°N, 8.2764°W)
Time: 19:25:46
(UTC+00:00)

Daily predictions for brighter satellites

Satellite Brightness Start Highest point End
(mag) Time Altitude Azimuth Time Altitude Azimuth Time Altitude Azimuth
Gbstr 26 Del rocket 4.3 18:00:42 10° NW 18:07:19 83° NE 18:15:08 10° SE
Delta 2 Rocket 4.1 18:05:56 10° W 18:11:03 70° N 18:16:38 10° E
OAO 2 Rocket 3.5 18:06:07 10° WSW 18:11:03 62° SSE 18:15:56 10° E
Cosmos 1726 Rocket 3.5 18:09:47 10° S 18:14:02 62° E 18:18:21 10° NNE
FengYun 1-2 T 4.3 18:13:13 10° SSE 18:18:47 65° ENE 18:24:22 10° N
Meteor 1-11 4.2 18:15:05 10° N 18:20:49 74° E 18:26:36 10° SSE
Cosmos 1758 Rocket 3.7 18:18:58 10° N 18:23:22 82° W 18:27:41 10° S
Delta 142 4.4 18:20:04 10° WSW 18:24:24 49° S 18:29:48 10° ESE
ERS-2 3.5 18:21:01 10° N 18:24:28 42° WNW 18:27:54 10° SW
Cosmos 1689 Rocket 2.2 18:21:45 10° NNE 18:24:33 48° E 18:27:19 10° S
Cosmos 2228 3.4 18:20:38 10° SSW 18:24:49 66° W 18:29:03 10° N
Meteor 2-14 Rocket 4.4 18:19:31 10° N 18:25:40 80° E 18:31:46 10° S
Cosmos 2297 Rocket 3.3 18:21:37 10° N 18:25:58 22° ENE 18:30:19 10° ESE
Cosmos 1340 3.9 18:24:00 10° NNE 18:26:55 21° ENE 18:29:48 10° SE
CORIOLIS 4.4 18:21:57 10° S 18:27:17 78° WSW 18:32:39 10° NNW
SAR-Lupe-4 3.6 18:24:38 10° N 18:28:13 83° WNW 18:31:47 10° SSW
Okean-O 3.7 18:25:28 10° SE 18:29:02 24° ENE 18:32:37 10° NNE
Cosmos 1606 Rocket 4.1 18:24:58 10° SSW 18:29:15 63° W 18:33:37 10° N
NOSS 3-3 (A) 4.3 18:24:58 10° S 18:30:06 38° ESE 18:35:39 10° NE
NOSS 3-3 (C) 4.3 18:25:02 10° S 18:30:13 38° ESE 18:35:47 10° NE
ASTRO E2 3.4 18:27:27 10° SW 18:31:11 41° SSE 18:34:17 14° E
Feng Yun 1-1 Rocket 4.4 18:28:49 10° SSE 18:34:37 68° ENE 18:40:30 10° N
Cosmos 1939 Rocket 2.9 18:34:50 10° SSE 18:38:44 53° ENE 18:42:35 10° N
Longmarch 3A Rocket 3.9 18:38:42 10° SSW 18:39:27 11° S 18:40:23 10° SSE
Helios 1A Rocket 3.4 18:37:24 10° SE 18:41:12 36° ENE 18:44:59 10° N
SKYMED 2 3.6 18:38:04 10° N 18:42:26 84° W 18:46:45 10° SSW
GPS 2-04 Rocket1 3.8 18:39:12 10° SW 18:42:50 32° SSE 18:45:09 19° ESE
Cosmos 1455 3.3 18:40:49 10° SE 18:43:48 23° E 18:45:22 18° NE
Aureole 3 2.9 18:42:43 10° S 18:46:14 80° W 18:49:18 10° N
Cosmos 1302 Rocket 4.5 18:45:14 10° SSW 18:50:24 64° WNW 18:55:39 10° N
OAO 3 Rocket 3.1 18:49:17 10° WNW 18:54:05 88° SSW 18:56:57 24° ESE
Cosmos 2219 3.6 18:49:30 10° N 18:54:57 42° ENE 19:00:22 10° SE
CZ-2C R/B 3.6 18:49:35 10° SE 18:55:00 42° ENE 19:00:20 10° N
Cosmos 220 Rocket 4.1 18:51:14 10° S 18:55:25 51° ESE 18:59:40 10° NNE
IUS-26 SRM-1 4.1 18:50:51 10° WSW 18:55:34 26° SSW 18:57:02 16° SE
Cosmos 2058 Rocket 3.7 18:56:04 10° SSW 19:00:28 60° W 19:04:55 10° N
CZ-4 R/B 1.4 18:56:59 10° SSE 19:00:46 49° ENE 19:04:32 10° N
Cosmos 1244 Rocket 4.4 18:54:43 10° N 19:00:58 87° E 19:07:15 10° S
Aureole 3 Rocket 3.4 18:57:48 10° SSW 19:01:11 57° W 19:05:38 10° N
Cosmos 1400 Rocket 3.8 18:58:24 10° SSW 19:02:24 50° W 19:06:25 10° N
MOS 1 Rocket 3.6 18:57:55 10° NNE 19:02:32 47° E 19:07:23 10° S
Meteor 2-10 Rocket 3.5 18:59:09 10° S 19:04:30 64° E 19:09:41 10° NNE
Cosmos 1953 Rocket 4.4 19:01:11 10° NNW 19:05:30 54° W 19:09:50 10° S
BREEZE-M DEB (TANK) 1.5 19:03:14 10° SW 19:06:17 85° NW 19:06:26 75° NNE
Cosmos 2058 3.7 19:03:17 10° NNE 19:06:04 30° NE 19:06:04 30° NE
Cosmos 2369 3.7 19:04:22 10° S 19:09:57 57° ESE 19:14:49 14° NNE
ARGOS 4.0 19:13:20 29° ENE 19:13:20 29° ENE 19:17:28 10° N
BREEZE-M DEB (TANK) 3.8 19:11:20 10° SW 19:14:52 80° NW 19:24:05 14° NE
DMSP B5D1-3 4.4 19:12:52 10° NNE 19:18:01 78° ESE 19:23:10 10° S
Atlas Centaur 2 3.2 19:11:18 10° WSW 19:19:41 66° S 19:23:52 32° E
OAO 1 Rocket 4.4 19:18:19 10° W 19:23:41 80° N 19:25:17 46° ENE
Cosmos 1892 2.6 19:21:36 10° N 19:25:29 89° W 19:29:21 10° S
Meteor 2-1 Rocket 4.1 19:21:00 10° S 19:26:31 90° NE 19:32:03 10° N
Milstar 3 3.0 19:20:06 10° WSW 19:26:49 59° S 19:29:44 34° ESE
Cosmos 883 Rocket 4.4 19:21:05 10° SSE 19:27:06 56° E 19:33:06 10° NNE
Cosmos 2315 Rocket 4.2 19:22:10 10° SSE 19:28:00 45° E 19:33:51 10° NNE
CSL-04 Rocket 3.7 19:24:23 14° SSE 19:29:04 59° ENE 19:34:31 10° N
GEOS 3 Rocket 4.4 19:29:48 35° NE 19:29:48 35° NE 19:34:18 10° NNW
CZ-2D R/B 4.5 19:26:17 10° S 19:29:54 42° W 19:33:32 10° NNW
Cosmos 2227 Rocket 2.1 19:24:38 10° NNW 19:30:15 65° ENE 19:32:21 38° SE
S3M 4.0 19:24:28 10° S 19:30:33 80° W 19:36:43 10° N
Cosmos 1992 Rocket 4.2 19:25:29 10° SSW 19:30:39 71° WNW 19:35:52 10° NNE
Cosmos 44 Rocket 3.1 19:27:07 10° SSW 19:31:48 72° ESE 19:32:21 64° ENE
Cosmos 1315 Rocket 2.9 19:28:27 10° SSW 19:32:21 72° W 19:34:30 26° N
H-2A R/B 2.0 19:30:01 20° SSE 19:33:43 66° ENE 19:39:07 10° N
Cosmos 1346 Rocket 4.0 19:33:07 10° N 19:35:21 32° N 19:35:21 32° N
YAOGAN 1 2.9 19:34:47 10° S 19:39:04 63° W 19:43:21 10° NNW
Cosmos 1697 Rocket 3.1 19:35:20 10° SSW 19:40:52 63° WNW 19:46:04 12° NNE
Cosmos 1812 Rocket 3.8 19:42:15 10° SSW 19:46:39 68° W 19:47:49 46° NNW
Delta 2 Rocket 4.1 19:48:23 10° WNW 19:53:48 69° SSW 19:54:01 68° S
OAO 2 Rocket 3.5 19:50:52 10° W 19:55:15 65° WNW 19:55:15 65° WNW
Cosmos 1980 Rocket 2.1 19:57:25 10° SSW 20:02:58 80° W 20:02:58 80° W
SeaSat 1 4.3 20:09:02 21° N 20:09:02 21° N 20:10:42 10° NNW
Cosmos 2297 Rocket 3.2 20:04:50 10° NW 20:10:09 43° WSW 20:13:33 21° SSW
Atlas Centaur 2 3.9 21:01:00 10° W 21:06:28 43° WSW 21:06:28 43° WSW
H-2A R/B (2) 4.3 21:07:33 10° W 21:27:40 47° WSW 21:27:40 47° WSW
